Location: Melara
(45.0500°N, 11.1833°E)
Time: 12:21:58
(UTC+00:00)

ADEOS II - Visible Passes

Search period start: 26 September 2022 00:00
Search period end: 06 October 2022 00:00
Orbit: 798 x 801 km, 98.6° (Epoch: 25 September)

Date Brightness Start Highest point End Pass type
(mag) Time Alt. Az. Time Alt. Az. Time Alt. Az.
26 Sep 3.6 01:41:45 10° N 01:44:26 31° N 01:44:26 31° N visible
26 Sep 4.1 03:23:54 10° NNW 03:25:21 12° NW 03:25:21 12° NW visible
27 Sep 4.0 01:15:01 10° NNE 01:17:15 26° NNE 01:17:15 26° NNE visible
27 Sep 3.8 02:55:47 10° NNW 02:58:10 18° NW 02:58:10 18° NW visible
28 Sep 4.5 00:48:30 10° NNE 00:50:04 19° NE 00:50:04 19° NE visible
28 Sep 3.6 02:28:24 10° N 02:30:59 24° NNW 02:30:59 24° NNW visible
29 Sep 4.9 00:22:19 10° NE 00:22:52 12° NE 00:22:52 12° NE visible
29 Sep 3.6 02:01:18 10° N 02:03:47 27° N 02:03:47 27° N visible
30 Sep 3.9 01:34:24 10° NNE 01:36:35 26° NNE 01:36:35 26° NNE visible
30 Sep 4.1 03:16:03 10° NNW 03:17:31 13° NW 03:17:31 13° NW visible
01 Oct 4.3 01:07:43 10° NNE 01:09:25 21° NNE 01:09:25 21° NNE visible
01 Oct 3.9 02:48:14 10° NNW 02:50:20 18° NNW 02:50:20 18° NNW visible
02 Oct 4.8 00:41:17 10° NNE 00:42:13 15° NE 00:42:13 15° NE visible
02 Oct 3.8 02:20:57 10° N 02:23:08 22° NNW 02:23:08 22° NNW visible
03 Oct 3.9 01:53:55 10° N 01:55:56 24° N 01:55:56 24° N visible
04 Oct 4.2 01:27:04 10° NNE 01:28:44 21° NNE 01:28:44 21° NNE visible
04 Oct 4.1 03:08:20 10° NNW 03:09:40 14° NW 03:09:40 14° NW visible
05 Oct 4.6 01:00:27 10° NNE 01:01:34 16° NNE 01:01:34 16° NNE visible
05 Oct 4.0 02:40:43 10° N 02:42:29 18° NNW 02:42:29 18° NNW visible
